Location: Doverdale
(52.2833°N, 2.2000°W)
Time: 02:18:44
(UTC+00:00)

NOSS 3-3 (A) - Pass Details

Date: 29 October 2020
Orbit: 826 x 1387 km, 63.4° (Epoch: 22 November)

Event Time Altitude Azimuth Distance (km) Brightness Sun altitude
Rises 19:54:03 0° 236° (SW) 3,474 7.4 -29.3°
Reaches altitude 10° 19:56:26 10° 239° (WSW) 2,590 6.7 -29.6°
Maximum altitude 20:02:27 68° 322° (NW) 1,068 4.2 -30.5°
Enters shadow 20:03:39 56° 14° (NNE) 1,187 4.3 -30.7°
